Satellite: NANOSALD
Catalog number: 37361
Epoch time:      11187.49898783
Element set:    0269
Inclination:      071.9652 deg
RA of node:       349.5955 deg
Eccentricity:    0.0046495
Arg of perigee:   101.0096 deg
Mean anomaly:     259.6363 deg
Mean motion:   15.04282256 rev/day
Decay rate:     6.1469e-04 rev/day^2
Epoch rev:           02502
Checksum:              337

Satellite: FO-70
Catalog number: 37380
Epoch time:      11188.46639112
Element set:    0209
Inclination:      071.9736 deg
RA of node:       354.6825 deg
Eccentricity:    0.0019081
Arg of perigee:   242.6397 deg
Mean anomaly:     117.2826 deg
Mean motion:   14.76372941 rev/day
Decay rate:        9.5e-07 rev/day^2
Epoch rev:           03385
Checksum:              323

/EX
SB KEPS @ AMSAT  $ORB11188.W
Orbital Elements  11188.WEATHER

HR AMSAT ORBITAL ELEMENTS FOR WEATHER SATELLITES
FROM WA5QGD FORT WORTH,TX July 7, 2011
Send Subscribe/unsubscribe to KEPS at http://www.amsat.org/mailman/listinfo/kep
BID: ORB11188.W
TO ALL RADIO AMATEURS BT

Satellite: NOAA-10
Catalog number: 16969
Epoch time:      11187.69600222
Element set:    0557
Inclination:      098.6187 deg
RA of node:       217.2165 deg
Eccentricity:    0.0012367
Arg of perigee:   164.3799 deg
Mean anomaly:     195.7764 deg
Mean motion:   14.27467755 rev/day
Decay rate:        6.1e-07 rev/day^2
Epoch rev:           29043
Checksum:              338

Satellite: NOAA-11
Catalog number: 19531
Epoch time:      11187.64714265
Element set:    0558
Inclination:      098.7523 deg
RA of node:       274.7430 deg
Eccentricity:    0.0011878
Arg of perigee:   130.6749 deg
Mean anomaly:     229.5469 deg
Mean motion:   14.14920738 rev/day
Decay rate:       3.11e-06 rev/day^2
Epoch rev:           17550
Checksum:              317

Satellite: NOAA-12
Catalog number: 21263
Epoch time:      11187.94748304
Element set:    0065
Inclination:      098.7494 deg
RA of node:       205.7573 deg
Eccentricity:    0.0013187
Arg of perigee:   126.5718 deg
Mean anomaly:     233.6677 deg
Mean motion:   14.25723294 rev/day
Decay rate:        7.9e-07 rev/day^2
Epoch rev:           04722
Checksum:              320

Satellite: MET-3/5
Catalog number: 21655
Epoch time:      11187.88575310
Element set:    0153
Inclination:      082.5552 deg
RA of node:       036.8559 deg
Eccentricity:    0.0014664
Arg of perigee:   106.2951 deg
Mean anomaly:     253.9752 deg
Mean motion:   13.17027545 rev/day
Decay rate:        5.1e-07 rev/day^2
Epoch rev:           95631
Checksum:              308

Satellite: MET-2/21
Catalog number: 22782
Epoch time:      11188.43173589
Element set:     141
Inclination:      082.5502 deg
RA of node:       306.8157 deg
Eccentricity:    0.0023610
Arg of perigee:   045.0542 deg
Mean anomaly:     315.2534 deg
Mean motion:   13.83660161 rev/day
Decay rate:        1.0e-08 rev/day^2
Epoch rev:           90135
Checksum:              264

Satellite: OKEAN-4
Catalog number: 23317
Epoch time:      11187.93260821
Element set:    0649
Inclination:      082.5396 deg
RA of node:       354.6976 deg
Eccentricity:    0.0023672
Arg of perigee:   056.0797 deg
Mean anomaly:     304.2664 deg
Mean motion:   14.83099528 rev/day
Decay rate:       2.49e-06 rev/day^2
Epoch rev:           90347
Checksum:              337

Satellite: NOAA-14
Catalog number: 23455
Epoch time:      11187.92194491
Element set:    0552
Inclination:      098.8526 deg
RA of node:       270.3623 deg
Eccentricity:    0.0008696
Arg of perigee:   220.7448 deg
Mean anomaly:     139.3074 deg
Mean motion:   14.13823928 rev/day
Decay rate:     -.00000000 rev/day^2
Epoch rev:           85186
Checksum:              310

Satellite: NOAA-15
Catalog number: 25338
Epoch time:      11188.38815959
Element set:     875
Inclination:      098.6550 deg
RA of node:       174.2538 deg
Eccentricity:    0.0011393
Arg of perigee:   038.2262 deg
Mean anomaly:     321.9729 deg
Mean motion:   14.24929571 rev/day
Decay rate:        7.0e-07 rev/day^2
Epoch rev:           68360
Checksum:              335

Satellite: RESURS
Catalog number: 25394
Epoch time:      11188.55112009
Element set:     838
Inclination:      098.3005 deg
RA of node:       190.4518 deg
Eccentricity:    0.0001435
Arg of perigee:   127.9077 deg
Mean anomaly:     232.2230 deg
Mean motion:   14.24235066 rev/day
Decay rate:       -2.8e-07 rev/day^2
Epoch rev:           67520
Checksum:              271

Satellite: FENGYUN1
Catalog number: 25730
Epoch time:      11187.91745196
Element set:    0382
Inclination:      098.8165 deg
RA of node:       148.6783 deg
Eccentricity:    0.0022058
Arg of perigee:   260.2202 deg
Mean anomaly:     099.6472 deg
Mean motion:   14.08672967 rev/day
Decay rate:       9.75e-06 rev/day^2
Epoch rev:           62584
Checksum:              338

Satellite: OKEAN-0
Catalog number: 25860
Epoch time:      11188.52967319
Element set:     353
Inclination:      097.8850 deg
RA of node:       154.4157 deg
Eccentricity:    0.0000738
Arg of perigee:   040.5042 deg
Mean anomaly:     319.6219 deg
Mean motion:   14.73800901 rev/day
Decay rate:        8.9e-07 rev/day^2
Epoch rev:           64365
Checksum:              306

